"datetime","temp","dp","rain_mm","uv","solar","mb","wind_mph","gust_mph","windchill","rh"
"2015-09-17 00:00:00",11.1,10.7,0.0,0.0,0,988.2,0,1,"",97
"2015-09-17 00:01:00",11.1,10.7,0.0,0.0,0,988.3,0,2,"",97
"2015-09-17 00:02:00",11.1,10.6,0.0,0.0,0,988.3,1,1,"",97
"2015-09-17 00:03:00",11.1,10.7,0.2,0.0,0,988.3,1,1,"",97
"2015-09-17 00:04:00",11.1,10.6,0.2,0.0,0,988.3,0,1,"",97
"2015-09-17 00:05:00",11.1,10.6,0.2,0.0,0,988.3,1,3,"",97
"2015-09-17 00:06:00",11.1,10.6,0.2,0.0,0,988.3,1,2,"",97
"2015-09-17 00:07:00",11.1,10.6,0.2,0.0,0,988.3,0,1,"",97
"2015-09-17 00:08:00",11.1,10.6,0.2,0.0,0,988.3,0,1,"",97
"2015-09-17 00:09:00",11.1,10.6,0.2,0.0,0,988.3,0,1,"",97
"2015-09-17 00:10:00",11.1,10.6,0.2,0.0,0,988.4,0,1,"",97
"2015-09-17 00:11:00",11.1,10.6,0.2,0.0,0,988.4,0,1,"",97
"2015-09-17 00:12:00",11.1,10.6,0.2,0.0,0,988.4,0,1,"",97
"2015-09-17 00:13:00",11.1,10.6,0.4,0.0,0,988.4,0,1,"",97
"2015-09-17 00:14:00",11.0,10.6,0.4,0.0,0,988.4,0,2,"",97
"2015-09-17 00:15:00",11.0,10.5,0.4,0.0,0,988.5,0,1,"",97
"2015-09-17 00:16:00",11.0,10.5,0.4,0.0,0,988.5,0,1,"",97
"2015-09-17 00:17:00",11.0,10.5,0.4,0.0,0,988.5,0,1,"",97
"2015-09-17 00:18:00",11.0,10.5,0.4,0.0,0,988.5,0,1,"",97
"2015-09-17 00:19:00",11.0,10.5,0.4,0.0,0,988.5,0,1,"",97
"2015-09-17 00:20:00",11.0,10.5,0.4,0.0,0,988.5,0,1,"",97
"2015-09-17 00:21:00",11.0,10.5,0.4,0.0,0,988.5,0,1,"",97
"2015-09-17 00:22:00",11.0,10.5,0.6,0.0,0,988.5,0,1,"",97
"2015-09-17 00:23:00",11.0,10.5,0.6,0.0,0,988.6,0,0,"",97
"2015-09-17 00:24:00",11.0,10.5,0.6,0.0,0,988.6,0,1,"",97
"2015-09-17 00:25:00",10.9,10.5,0.6,0.0,0,988.6,0,3,"",97
"2015-09-17 00:26:00",10.9,10.5,0.6,0.0,0,988.6,1,2,"",97
"2015-09-17 00:27:00",10.9,10.5,0.6,0.0,0,988.6,1,1,"",97
"2015-09-17 00:28:00",10.9,10.5,0.6,0.0,0,988.6,1,1,"",97
"2015-09-17 00:29:00",10.9,10.5,0.6,0.0,0,988.6,0,1,"",97
"2015-09-17 00:30:00",10.9,10.5,0.6,0.0,0,988.6,0,1,"",97
"2015-09-17 00:31:00",10.9,10.5,0.6,0.0,0,988.6,0,1,"",97
"2015-09-17 00:32:00",10.9,10.5,0.8,0.0,0,988.7,0,1,"",97
"2015-09-17 00:33:00",10.9,10.5,0.8,0.0,0,988.7,0,1,"",97
"2015-09-17 00:34:00",10.9,10.5,0.8,0.0,0,988.7,0,1,"",97
"2015-09-17 00:35:00",10.9,10.5,0.8,0.0,0,988.7,1,2,"",97
"2015-09-17 00:36:00",10.9,10.5,0.8,0.0,0,988.6,1,1,"",97
"2015-09-17 00:37:00",10.9,10.6,0.8,0.0,0,988.6,0,1,"",98
"2015-09-17 00:38:00",10.9,10.6,0.8,0.0,0,988.7,0,1,"",98
"2015-09-17 00:39:00",10.9,10.6,0.8,0.0,0,988.8,0,1,"",98
"2015-09-17 00:40:00",10.9,10.6,0.8,0.0,0,988.8,0,1,"",98
"2015-09-17 00:41:00",10.9,10.6,0.8,0.0,0,988.8,1,1,"",98
"2015-09-17 00:42:00",10.9,10.6,0.8,0.0,0,988.8,0,1,"",98
"2015-09-17 00:43:00",10.9,10.6,0.8,0.0,0,988.9,0,1,"",98
"2015-09-17 00:44:00",10.9,10.6,0.8,0.0,0,988.9,0,1,"",98
"2015-09-17 00:45:00",10.9,10.6,0.8,0.0,0,988.9,0,1,"",98
"2015-09-17 00:46:00",10.9,10.6,1.0,0.0,0,988.9,0,1,"",98
"2015-09-17 00:47:00",10.9,10.6,1.0,0.0,0,989.0,0,1,"",98
"2015-09-17 00:48:00",10.9,10.6,1.0,0.0,0,989.0,0,1,"",98
"2015-09-17 00:49:00",10.9,10.6,1.0,0.0,0,989.0,0,1,"",98
"2015-09-17 00:50:00",10.9,10.6,1.0,0.0,0,989.0,0,2,"",98
"2015-09-17 00:51:00",10.9,10.6,1.0,0.0,0,989.0,1,2,"",98
"2015-09-17 00:52:00",10.9,10.6,1.0,0.0,0,989.0,1,1,"",98
"2015-09-17 00:53:00",10.9,10.6,1.0,0.0,0,989.0,0,1,"",98
"2015-09-17 00:54:00",10.9,10.6,1.0,0.0,0,989.0,0,1,"",98
"2015-09-17 00:55:00",10.9,10.6,1.0,0.0,0,989.0,1,2,"",98
"2015-09-17 00:56:00",10.9,10.6,1.0,0.0,0,989.1,1,2,"",98
"2015-09-17 00:57:00",10.9,10.6,1.0,0.0,0,989.1,1,2,"",98
"2015-09-17 00:58:00",10.9,10.6,1.0,0.0,0,989.1,1,1,"",98
"2015-09-17 00:59:00",10.9,10.6,1.0,0.0,0,989.1,1,1,"",98
"2015-09-17 01:00:00",10.9,10.6,1.0,0.0,0,989.1,0,1,"",98
"2015-09-17 01:01:00",10.9,10.6,1.0,0.0,0,989.1,0,1,"",98
"2015-09-17 01:02:00",10.9,10.6,1.0,0.0,0,989.2,0,1,"",98
"2015-09-17 01:03:00",10.9,10.6,1.0,0.0,0,989.2,1,1,"",98
"2015-09-17 01:04:00",10.9,10.6,1.0,0.0,0,989.2,1,3,"",98
"2015-09-17 01:05:00",10.9,10.6,1.0,0.0,0,989.2,2,3,"",98
"2015-09-17 01:06:00",10.9,10.6,1.0,0.0,0,989.3,1,1,"",98
"2015-09-17 01:07:00",10.9,10.6,1.0,0.0,0,989.3,0,2,"",98
"2015-09-17 01:08:00",10.9,10.6,1.0,0.0,0,989.4,1,2,"",98
"2015-09-17 01:09:00",11.0,10.7,1.0,0.0,0,989.4,1,2,"",98
"2015-09-17 01:10:00",11.0,10.7,1.0,0.0,0,989.4,0,1,"",98
"2015-09-17 01:11:00",11.0,10.7,1.0,0.0,0,989.4,1,2,"",98
"2015-09-17 01:12:00",11.0,10.7,1.2,0.0,0,989.4,1,2,"",98
"2015-09-17 01:13:00",11.0,10.7,1.2,0.0,0,989.5,1,2,"",98
"2015-09-17 01:14:00",11.0,10.7,1.2,0.0,0,989.5,1,2,"",98
"2015-09-17 01:15:00",11.0,10.7,1.2,0.0,0,989.5,1,3,"",98
"2015-09-17 01:16:00",11.0,10.7,1.2,0.0,0,989.5,1,2,"",98
"2015-09-17 01:17:00",11.0,10.7,1.2,0.0,0,989.5,1,1,"",98
"2015-09-17 01:18:00",11.0,10.7,1.2,0.0,0,989.6,0,1,"",98
"2015-09-17 01:19:00",11.0,10.7,1.2,0.0,0,989.6,0,1,"",98
"2015-09-17 01:20:00",11.0,10.7,1.2,0.0,0,989.6,0,2,"",98
"2015-09-17 01:21:00",11.0,10.7,1.2,0.0,0,989.6,0,1,"",98
"2015-09-17 01:22:00",11.0,10.7,1.2,0.0,0,989.6,0,2,"",98
"2015-09-17 01:23:00",11.0,10.7,1.2,0.0,0,989.7,1,1,"",98
"2015-09-17 01:24:00",11.1,10.8,1.2,0.0,0,989.7,1,1,"",98
"2015-09-17 01:25:00",11.1,10.8,1.2,0.0,0,989.7,0,2,"",98
"2015-09-17 01:26:00",11.1,10.8,1.2,0.0,0,989.7,0,1,"",98
"2015-09-17 01:27:00",11.1,10.8,1.2,0.0,0,989.8,0,1,"",98
"2015-09-17 01:28:00",11.1,10.8,1.2,0.0,0,989.8,0,1,"",98
"2015-09-17 01:29:00",11.1,10.8,1.2,0.0,0,989.8,0,1,"",98
"2015-09-17 01:30:00",11.1,10.8,1.2,0.0,0,989.8,0,1,"",98
"2015-09-17 01:31:00",11.1,10.8,1.2,0.0,0,989.8,0,1,"",98
"2015-09-17 01:32:00",11.1,10.8,1.2,0.0,0,989.9,0,1,"",98
"2015-09-17 01:33:00",11.1,10.8,1.2,0.0,0,989.9,1,1,"",98
"2015-09-17 01:34:00",11.1,10.8,1.2,0.0,0,989.9,0,2,"",98
"2015-09-17 01:35:00",11.1,10.8,1.2,0.0,0,989.9,1,2,"",98
"2015-09-17 01:36:00",11.1,10.8,1.2,0.0,0,990.0,0,1,"",98
"2015-09-17 01:37:00",11.1,10.8,1.2,0.0,0,990.0,0,2,"",98
"2015-09-17 01:38:00",11.1,10.8,1.2,0.0,0,990.0,1,2,"",98
"2015-09-17 01:39:00",11.1,10.8,1.2,0.0,0,990.0,1,1,"",98
"2015-09-17 01:40:00",11.1,10.8,1.2,0.0,0,990.0,0,1,"",98
"2015-09-17 01:41:00",11.1,10.8,1.2,0.0,0,990.1,0,1,"",98
"2015-09-17 01:42:00",11.1,10.8,1.2,0.0,0,990.1,0,1,"",98
"2015-09-17 01:43:00",11.1,10.8,1.2,0.0,0,990.1,0,1,"",98
"2015-09-17 01:44:00",11.1,10.8,1.2,0.0,0,990.2,0,1,"",98
"2015-09-17 01:45:00",11.2,10.8,1.2,0.0,0,990.2,0,1,"",97
"2015-09-17 01:46:00",11.2,10.9,1.2,0.0,0,990.2,0,2,"",98
"2015-09-17 01:47:00",11.2,10.9,1.2,0.0,0,990.2,0,1,"",98
"2015-09-17 01:48:00",11.2,10.9,1.2,0.0,0,990.3,0,2,"",98
"2015-09-17 01:49:00",11.2,10.9,1.2,0.0,0,990.3,1,1,"",98
"2015-09-17 01:50:00",11.2,10.9,1.2,0.0,0,990.3,1,2,"",98
"2015-09-17 01:51:00",11.2,10.9,1.2,0.0,0,990.3,0,2,"",98
"2015-09-17 01:52:00",11.2,10.9,1.2,0.0,0,990.3,1,2,"",98
"2015-09-17 01:53:00",11.2,10.9,1.2,0.0,0,990.3,1,1,"",98
"2015-09-17 01:54:00",11.2,10.9,1.2,0.0,0,990.4,1,2,"",98
"2015-09-17 01:55:00",11.2,10.9,1.2,0.0,0,990.4,1,1,"",98
"2015-09-17 01:56:00",11.2,10.9,1.2,0.0,0,990.4,0,1,"",98
"2015-09-17 01:57:00",11.2,10.9,1.2,0.0,0,990.4,0,1,"",98
"2015-09-17 01:58:00",11.2,10.9,1.2,0.0,0,990.5,1,1,"",98
"2015-09-17 01:59:00",11.2,10.9,1.2,0.0,0,990.5,0,1,"",98
"2015-09-17 02:00:00",11.2,10.9,1.2,0.0,0,990.6,0,1,"",98
"2015-09-17 02:01:00",11.2,10.9,1.2,0.0,0,990.6,0,1,"",98
"2015-09-17 02:02:00",11.2,10.9,1.2,0.0,0,990.6,0,2,"",98
"2015-09-17 02:03:00",11.2,10.9,1.2,0.0,0,990.7,1,2,"",98
"2015-09-17 02:04:00",11.2,10.9,1.2,0.0,0,990.7,1,2,"",98
"2015-09-17 02:05:00",11.2,10.9,1.2,0.0,0,990.7,1,1,"",98
"2015-09-17 02:06:00",11.2,10.9,1.2,0.0,0,990.7,1,1,"",98
"2015-09-17 02:07:00",11.2,10.9,1.2,0.0,0,990.7,0,1,"",98
"2015-09-17 02:08:00",11.2,10.9,1.2,0.0,0,990.7,0,1,"",98
"2015-09-17 02:09:00",11.2,10.9,1.2,0.0,0,990.8,0,1,"",98
"2015-09-17 02:10:00",11.3,11.0,1.2,0.0,0,990.8,0,1,"",98
"2015-09-17 02:11:00",11.3,11.0,1.2,0.0,0,990.8,0,1,"",98
"2015-09-17 02:12:00",11.3,11.0,1.2,0.0,0,990.8,1,3,"",98
"2015-09-17 02:13:00",11.3,11.0,1.2,0.0,0,990.8,1,1,"",98
"2015-09-17 02:14:00",11.3,11.0,1.2,0.0,0,990.8,0,0,"",98
"2015-09-17 02:15:00",11.3,11.0,1.4,0.0,0,990.9,0,1,"",98
"2015-09-17 02:16:00",11.3,11.0,1.4,0.0,0,990.9,1,3,"",98
"2015-09-17 02:17:00",11.3,11.0,1.4,0.0,0,990.9,1,2,"",98
"2015-09-17 02:18:00",11.3,11.0,1.4,0.0,0,990.9,0,1,"",98
"2015-09-17 02:19:00",11.3,11.0,1.4,0.0,0,990.9,0,1,"",98
"2015-09-17 02:20:00",11.3,11.0,1.4,0.0,0,991.0,0,1,"",98
"2015-09-17 02:21:00",11.3,11.0,1.4,0.0,0,991.0,0,1,"",98
"2015-09-17 02:22:00",11.3,11.0,1.4,0.0,0,991.0,0,1,"",98
"2015-09-17 02:23:00",11.3,11.0,1.4,0.0,0,991.0,0,1,"",98
"2015-09-17 02:24:00",11.3,11.0,1.4,0.0,0,991.0,0,1,"",98
"2015-09-17 02:25:00",11.3,11.0,1.4,0.0,0,991.1,0,1,"",98
"2015-09-17 02:26:00",11.3,11.0,1.4,0.0,0,991.1,0,1,"",98
"2015-09-17 02:27:00",11.3,11.0,1.4,0.0,0,991.1,0,1,"",98
"2015-09-17 02:28:00",11.3,11.0,1.4,0.0,0,991.1,0,1,"",98
"2015-09-17 02:29:00",11.3,11.0,1.4,0.0,0,991.1,0,2,"",98
"2015-09-17 02:30:00",11.3,11.0,1.4,0.0,0,991.2,1,1,"",98
"2015-09-17 02:31:00",11.3,11.0,1.4,0.0,0,991.2,1,2,"",98
"2015-09-17 02:32:00",11.3,11.0,1.4,0.0,0,991.2,1,1,"",98
"2015-09-17 02:33:00",11.3,11.0,1.4,0.0,0,991.2,0,2,"",98
"2015-09-17 02:34:00",11.3,11.0,1.4,0.0,0,991.2,1,2,"",98
"2015-09-17 02:35:00",11.3,11.0,1.4,0.0,0,991.3,0,2,"",98
"2015-09-17 02:36:00",11.3,11.0,1.4,0.0,0,991.3,1,1,"",98
"2015-09-17 02:37:00",11.3,11.0,1.4,0.0,0,991.3,0,1,"",98
"2015-09-17 02:38:00",11.3,11.0,1.4,0.0,0,991.4,0,1,"",98
"2015-09-17 02:39:00",11.3,11.0,1.4,0.0,0,991.4,0,1,"",98
"2015-09-17 02:40:00",11.3,11.0,1.4,0.0,0,991.4,0,2,"",98
"2015-09-17 02:41:00",11.3,11.0,1.4,0.0,0,991.4,1,2,"",98
"2015-09-17 02:42:00",11.3,11.0,1.4,0.0,0,991.4,1,1,"",98
"2015-09-17 02:43:00",11.3,11.0,1.4,0.0,0,991.4,0,1,"",98
"2015-09-17 02:44:00",11.3,11.0,1.4,0.0,0,991.4,0,1,"",98
"2015-09-17 02:45:00",11.3,11.0,1.4,0.0,0,991.5,0,1,"",98
"2015-09-17 02:46:00",11.3,11.0,1.4,0.0,0,991.5,0,1,"",98
"2015-09-17 02:47:00",11.3,11.0,1.4,0.0,0,991.5,0,1,"",98
"2015-09-17 02:48:00",11.3,11.0,1.4,0.0,0,991.6,0,3,"",98
"2015-09-17 02:49:00",11.3,11.0,1.4,0.0,0,991.6,1,3,"",98
"2015-09-17 02:50:00",11.3,11.0,1.4,0.0,0,991.6,1,1,"",98
"2015-09-17 02:51:00",11.3,11.0,1.4,0.0,0,991.6,0,2,"",98
"2015-09-17 02:52:00",11.3,11.0,1.4,0.0,0,991.7,1,2,"",98
"2015-09-17 02:53:00",11.3,11.0,1.4,0.0,0,991.7,0,1,"",98
"2015-09-17 02:54:00",11.3,11.0,1.4,0.0,0,991.7,0,2,"",98
"2015-09-17 02:55:00",11.3,11.0,1.4,0.0,0,991.7,1,1,"",98
"2015-09-17 02:56:00",11.3,11.0,1.4,0.0,0,991.7,1,1,"",98
"2015-09-17 02:57:00",11.3,11.0,1.4,0.0,0,991.7,1,1,"",98
"2015-09-17 02:58:00",11.3,11.0,1.4,0.0,0,991.7,0,1,"",98
"2015-09-17 02:59:00",11.3,11.0,1.4,0.0,0,991.8,0,1,"",98
"2015-09-17 03:00:00",11.3,11.0,1.4,0.0,0,991.8,0,1,"",98
"2015-09-17 03:01:00",11.3,11.0,1.4,0.0,0,991.8,0,1,"",98
"2015-09-17 03:02:00",11.3,11.0,1.4,0.0,0,991.8,0,1,"",98
"2015-09-17 03:03:00",11.3,11.0,1.4,0.0,0,991.9,0,1,"",98
"2015-09-17 03:04:00",11.3,11.0,1.4,0.0,0,991.9,0,1,"",98
"2015-09-17 03:05:00",11.3,11.0,1.4,0.0,0,991.9,0,1,"",98
"2015-09-17 03:06:00",11.3,10.9,1.4,0.0,0,992.0,0,1,"",97
"2015-09-17 03:07:00",11.2,10.9,1.4,0.0,0,992.0,0,1,"",98
"2015-09-17 03:08:00",11.2,10.9,1.4,0.0,0,992.0,0,1,"",98
"2015-09-17 03:09:00",11.2,10.9,1.4,0.0,0,992.0,0,1,"",98
"2015-09-17 03:10:00",11.2,10.9,1.4,0.0,0,992.0,0,1,"",98
"2015-09-17 03:11:00",11.2,10.9,1.4,0.0,0,992.0,0,1,"",98
"2015-09-17 03:12:00",11.2,10.9,1.4,0.0,0,992.1,1,1,"",98
"2015-09-17 03:13:00",11.2,10.9,1.4,0.0,0,992.1,0,1,"",98
"2015-09-17 03:14:00",11.2,10.9,1.4,0.0,0,992.1,0,1,"",98
"2015-09-17 03:15:00",11.2,10.9,1.4,0.0,0,992.1,0,1,"",98
"2015-09-17 03:16:00",11.2,10.9,1.4,0.0,0,992.1,0,1,"",98
"2015-09-17 03:17:00",11.2,10.9,1.4,0.0,0,992.1,1,2,"",98
"2015-09-17 03:18:00",11.2,10.9,1.4,0.0,0,992.2,0,2,"",98
"2015-09-17 03:19:00",11.2,10.9,1.4,0.0,0,992.2,1,1,"",98
"2015-09-17 03:20:00",11.2,10.9,1.4,0.0,0,992.2,0,1,"",98
"2015-09-17 03:21:00",11.2,10.9,1.4,0.0,0,992.2,0,1,"",98
"2015-09-17 03:22:00",11.2,10.9,1.6,0.0,0,992.2,0,1,"",98
"2015-09-17 03:23:00",11.2,10.9,1.6,0.0,0,992.2,0,2,"",98
"2015-09-17 03:24:00",11.2,10.9,1.6,0.0,0,992.2,1,2,"",98
"2015-09-17 03:25:00",11.2,10.9,1.6,0.0,0,992.3,1,1,"",98
"2015-09-17 03:26:00",11.2,10.9,1.6,0.0,0,992.3,0,1,"",98
"2015-09-17 03:27:00",11.2,10.9,1.6,0.0,0,992.3,0,1,"",98
"2015-09-17 03:28:00",11.2,10.9,1.6,0.0,0,992.3,0,1,"",98
"2015-09-17 03:29:00",11.2,10.9,1.6,0.0,0,992.4,1,2,"",98
"2015-09-17 03:30:00",11.2,10.9,1.6,0.0,0,992.4,1,1,"",98
"2015-09-17 03:31:00",11.2,10.9,1.6,0.0,0,992.4,0,1,"",98
"2015-09-17 03:32:00",11.1,10.8,1.6,0.0,0,992.4,0,1,"",98
"2015-09-17 03:33:00",11.1,10.8,1.6,0.0,0,992.4,0,1,"",98
"2015-09-17 03:34:00",11.1,10.8,1.6,0.0,0,992.4,0,1,"",98
"2015-09-17 03:35:00",11.1,10.8,1.6,0.0,0,992.4,0,2,"",98
"2015-09-17 03:36:00",11.1,10.8,1.6,0.0,0,992.4,1,1,"",98
"2015-09-17 03:37:00",11.1,10.8,1.6,0.0,0,992.5,0,1,"",98
"2015-09-17 03:38:00",11.1,10.8,1.6,0.0,0,992.5,0,0,"",98
"2015-09-17 03:39:00",11.1,10.8,1.6,0.0,0,992.4,0,1,"",98
"2015-09-17 03:40:00",11.1,10.8,1.6,0.0,0,992.5,0,1,"",98
"2015-09-17 03:41:00",11.1,10.8,1.6,0.0,0,992.5,0,1,"",98
"2015-09-17 03:42:00",11.1,10.8,1.6,0.0,0,992.5,0,2,"",98
"2015-09-17 03:43:00",11.1,10.8,1.6,0.0,0,992.5,0,1,"",98
"2015-09-17 03:44:00",11.1,10.8,1.6,0.0,0,992.5,0,1,"",98
"2015-09-17 03:45:00",11.1,10.8,1.6,0.0,0,992.5,0,1,"",98
"2015-09-17 03:46:00",11.1,10.8,1.6,0.0,0,992.5,0,0,"",98
"2015-09-17 03:47:00",11.0,10.7,1.6,0.0,0,992.6,0,1,"",98
"2015-09-17 03:48:00",11.0,10.7,1.6,0.0,0,992.6,0,2,"",98
"2015-09-17 03:49:00",11.0,10.7,1.6,0.0,0,992.6,1,2,"",98
"2015-09-17 03:50:00",11.0,10.7,1.6,0.0,0,992.6,0,0,"",98
"2015-09-17 03:51:00",11.0,10.7,1.6,0.0,0,992.6,0,1,"",98
"2015-09-17 03:52:00",11.0,10.7,1.6,0.0,0,992.7,0,1,"",98
"2015-09-17 03:53:00",11.0,10.7,1.6,0.0,0,992.7,0,0,"",98
"2015-09-17 03:54:00",11.0,10.7,1.6,0.0,0,992.7,0,0,"",98
"2015-09-17 03:55:00",11.0,10.7,1.6,0.0,0,992.7,0,1,"",98
"2015-09-17 03:56:00",10.9,10.6,1.6,0.0,0,992.8,1,2,"",98
"2015-09-17 03:57:00",10.9,10.6,1.6,0.0,0,992.8,0,1,"",98
"2015-09-17 03:58:00",10.9,10.6,1.6,0.0,0,992.8,0,1,"",98
"2015-09-17 03:59:00",10.9,10.6,1.6,0.0,0,992.8,0,1,"",98
"2015-09-17 04:00:00",10.9,10.6,1.6,0.0,0,992.8,0,2,"",98
"2015-09-17 04:01:00",10.9,10.6,1.6,0.0,0,992.8,1,1,"",98
"2015-09-17 04:02:00",10.9,10.6,1.6,0.0,0,992.8,0,1,"",98
"2015-09-17 04:03:00",10.9,10.6,1.6,0.0,0,992.8,0,1,"",98
"2015-09-17 04:04:00",10.9,10.6,1.6,0.0,0,992.8,0,1,"",98
"2015-09-17 04:05:00",10.9,10.6,1.6,0.0,0,992.9,0,1,"",98
"2015-09-17 04:06:00",10.9,10.6,1.6,0.0,0,992.9,0,1,"",98
"2015-09-17 04:07:00",10.8,10.5,1.6,0.0,0,992.9,0,1,"",98
"2015-09-17 04:08:00",10.8,10.5,1.6,0.0,0,992.9,0,1,"",98
"2015-09-17 04:09:00",10.8,10.5,1.6,0.0,0,992.9,0,1,"",98
"2015-09-17 04:10:00",10.8,10.5,1.6,0.0,0,992.9,0,1,"",98
"2015-09-17 04:11:00",10.8,10.5,1.6,0.0,0,992.9,0,1,"",98
"2015-09-17 04:12:00",10.8,10.5,1.6,0.0,0,992.9,0,1,"",98
"2015-09-17 04:13:00",10.8,10.5,1.6,0.0,0,992.9,0,1,"",98
"2015-09-17 04:14:00",10.8,10.5,1.6,0.0,0,992.9,0,1,"",98
"2015-09-17 04:15:00",10.8,10.5,1.6,0.0,0,993.0,0,1,"",98
"2015-09-17 04:16:00",10.7,10.4,1.6,0.0,0,993.0,0,1,"",98
"2015-09-17 04:17:00",10.7,10.4,1.6,0.0,0,993.0,0,1,"",98
"2015-09-17 04:18:00",10.7,10.4,1.6,0.0,0,993.0,0,1,"",98
"2015-09-17 04:19:00",10.7,10.4,1.6,0.0,0,993.0,0,1,"",98
"2015-09-17 04:20:00",10.7,10.4,1.6,0.0,0,993.0,0,1,"",98
"2015-09-17 04:21:00",10.7,10.4,1.6,0.0,0,993.1,0,1,"",98
"2015-09-17 04:22:00",10.7,10.4,1.6,0.0,0,993.1,0,1,"",98
"2015-09-17 04:23:00",10.7,10.4,1.6,0.0,0,993.1,0,1,"",98
"2015-09-17 04:24:00",10.7,10.4,1.6,0.0,0,993.1,0,1,"",98
"2015-09-17 04:25:00",10.6,10.3,1.6,0.0,0,993.1,0,0,"",98
"2015-09-17 04:26:00",10.6,10.3,1.6,0.0,0,993.1,0,1,"",98
"2015-09-17 04:27:00",10.6,10.3,1.6,0.0,0,993.1,0,1,"",98
"2015-09-17 04:28:00",10.6,10.3,1.6,0.0,0,993.1,1,2,"",98
"2015-09-17 04:29:00",10.6,10.3,1.6,0.0,0,993.1,0,1,"",98
"2015-09-17 04:30:00",10.6,10.1,1.6,0.0,0,993.1,0,1,"",97
"2015-09-17 04:31:00",10.5,10.1,1.6,0.0,0,993.1,0,1,"",97
"2015-09-17 04:32:00",10.5,10.0,1.6,0.0,0,993.1,0,1,"",97
"2015-09-17 04:33:00",10.5,10.0,1.6,0.0,0,993.1,0,1,"",97
"2015-09-17 04:34:00",10.5,10.0,1.6,0.0,0,993.1,0,1,"",97
"2015-09-17 04:35:00",10.5,10.0,1.6,0.0,0,993.2,0,1,"",97
"2015-09-17 04:36:00",10.4,10.1,1.6,0.0,0,993.2,0,2,"",98
"2015-09-17 04:37:00",10.4,10.0,1.6,0.0,0,993.2,1,2,"",97
"2015-09-17 04:38:00",10.4,10.0,1.6,0.0,0,993.2,0,1,"",97
"2015-09-17 04:39:00",10.4,9.9,1.6,0.0,0,993.2,0,1,"",97
"2015-09-17 04:40:00",10.4,9.9,1.6,0.0,0,993.2,0,1,"",97
"2015-09-17 04:41:00",10.4,9.9,1.6,0.0,0,993.2,0,1,"",97
"2015-09-17 04:42:00",10.4,10.1,1.6,0.0,0,993.2,0,1,"",98
"2015-09-17 04:43:00",10.3,10.0,1.6,0.0,0,993.2,0,1,"",98
"2015-09-17 04:44:00",10.3,10.0,1.6,0.0,0,993.2,0,1,"",98
"2015-09-17 04:45:00",10.3,10.0,1.6,0.0,0,993.2,0,1,"",98
"2015-09-17 04:46:00",10.3,10.0,1.6,0.0,0,993.1,0,1,"",98
"2015-09-17 04:47:00",10.3,10.0,1.6,0.0,0,993.2,0,1,"",98
"2015-09-17 04:48:00",10.3,10.0,1.6,0.0,0,993.1,0,1,"",98
"2015-09-17 04:49:00",10.3,10.0,1.6,0.0,0,993.2,0,1,"",98
"2015-09-17 04:50:00",10.3,10.0,1.6,0.0,0,993.2,0,2,"",98
"2015-09-17 04:51:00",10.2,9.9,1.6,0.0,0,993.2,1,3,"",98
"2015-09-17 04:52:00",10.2,9.9,1.6,0.0,0,993.2,1,1,"",98
"2015-09-17 04:53:00",10.2,9.9,1.6,0.0,0,993.2,0,1,"",98
"2015-09-17 04:54:00",10.2,9.9,1.6,0.0,0,993.2,0,1,"",98
"2015-09-17 04:55:00",10.2,9.7,1.6,0.0,0,993.2,0,1,"",97
"2015-09-17 04:56:00",10.2,9.7,1.6,0.0,0,993.2,0,1,"",97
"2015-09-17 04:57:00",10.2,9.7,1.6,0.0,0,993.2,0,2,"",97
"2015-09-17 04:58:00",10.2,9.7,1.6,0.0,0,993.3,0,1,"",97
"2015-09-17 04:59:00",10.1,9.7,1.6,0.0,0,993.3,0,1,"",97
"2015-09-17 05:00:00",10.1,9.7,1.6,0.0,0,993.2,0,1,"",97
"2015-09-17 05:01:00",10.1,9.7,1.6,0.0,0,993.2,0,1,"",97
"2015-09-17 05:02:00",10.1,9.7,1.6,0.0,0,993.2,0,1,"",97
"2015-09-17 05:03:00",10.1,9.6,1.6,0.0,0,993.3,1,2,"",97
"2015-09-17 05:04:00",10.1,9.6,1.6,0.0,0,993.2,0,2,"",97
"2015-09-17 05:05:00",10.1,9.6,1.6,0.0,0,993.3,0,2,"",97
"2015-09-17 05:06:00",10.1,9.6,1.6,0.0,0,993.2,0,1,"",97
"2015-09-17 05:07:00",10.1,9.6,1.6,0.0,0,993.3,0,1,"",97
"2015-09-17 05:08:00",10.0,9.6,1.6,0.0,0,993.3,0,1,"",97
"2015-09-17 05:09:00",10.0,9.7,1.6,0.0,0,993.3,0,1,"",98
"2015-09-17 05:10:00",10.0,9.7,1.6,0.0,0,993.3,0,1,"",98
"2015-09-17 05:11:00",10.0,9.7,1.6,0.0,0,993.2,0,2,"",98
"2015-09-17 05:12:00",10.0,9.7,1.6,0.0,0,993.2,1,2,"",98
"2015-09-17 05:13:00",10.0,9.7,1.6,0.0,0,993.2,0,1,"",98
"2015-09-17 05:14:00",9.9,9.6,1.6,0.0,0,993.3,0,1,"",98
"2015-09-17 05:15:00",9.9,9.6,1.6,0.0,0,993.3,0,1,"",98
"2015-09-17 05:16:00",9.9,9.6,1.6,0.0,0,993.3,0,1,"",98
"2015-09-17 05:17:00",9.9,9.6,1.6,0.0,0,993.3,0,1,"",98
"2015-09-17 05:18:00",9.9,9.6,1.6,0.0,0,993.3,0,1,"",98
"2015-09-17 05:19:00",9.9,9.6,1.6,0.0,0,993.4,0,1,"",98
"2015-09-17 05:20:00",9.9,9.6,1.6,0.0,0,993.4,0,1,"",98
"2015-09-17 05:21:00",9.9,9.6,1.6,0.0,0,993.5,0,1,"",98
"2015-09-17 05:22:00",9.9,9.6,1.6,0.0,0,993.5,0,1,"",98
"2015-09-17 05:23:00",9.9,9.6,1.6,0.0,0,993.5,0,1,"",98
"2015-09-17 05:24:00",9.8,9.5,1.6,0.0,0,993.5,0,1,"",98
"2015-09-17 05:25:00",9.8,9.5,1.6,0.0,0,993.5,0,1,"",98
"2015-09-17 05:26:00",9.8,9.5,1.6,0.0,0,993.5,0,0,"",98
"2015-09-17 05:27:00",9.8,9.4,1.6,0.0,0,993.5,0,1,"",97
"2015-09-17 05:28:00",9.8,9.4,1.6,0.0,0,993.6,0,1,"",97
"2015-09-17 05:29:00",9.8,9.4,1.6,0.0,0,993.6,1,1,"",97
"2015-09-17 05:30:00",9.8,9.3,1.6,0.0,0,993.6,0,1,"",97
"2015-09-17 05:31:00",9.8,9.3,1.6,0.0,0,993.6,0,1,"",97
"2015-09-17 05:32:00",9.8,9.3,1.6,0.0,0,993.6,0,1,"",97
"2015-09-17 05:33:00",9.8,9.3,1.6,0.0,0,993.6,0,1,"",97
"2015-09-17 05:34:00",9.8,9.3,1.6,0.0,0,993.7,0,1,"",97
"2015-09-17 05:35:00",9.8,9.3,1.6,0.0,0,993.7,0,1,"",97
"2015-09-17 05:36:00",9.7,9.3,1.6,0.0,0,993.7,0,0,"",97
"2015-09-17 05:37:00",9.7,9.3,1.6,0.0,0,993.7,0,1,"",97
"2015-09-17 05:38:00",9.7,9.3,1.6,0.0,0,993.7,0,1,"",97
"2015-09-17 05:39:00",9.7,9.3,1.6,0.0,0,993.7,0,1,"",97
"2015-09-17 05:40:00",9.7,9.2,1.6,0.0,0,993.7,0,0,"",97
"2015-09-17 05:41:00",9.7,9.2,1.6,0.0,0,993.7,0,1,"",97
"2015-09-17 05:42:00",9.7,9.2,1.6,0.0,0,993.7,0,0,"",97
"2015-09-17 05:43:00",9.7,9.2,1.6,0.0,0,993.7,0,1,"",97
"2015-09-17 05:44:00",9.6,9.2,1.6,0.0,0,993.8,0,1,"",97
"2015-09-17 05:45:00",9.6,9.2,1.6,0.0,0,993.8,0,1,"",97
"2015-09-17 05:46:00",9.6,9.2,1.6,0.0,0,993.8,0,1,"",97
"2015-09-17 05:47:00",9.6,9.1,1.6,0.0,0,993.8,0,1,"",97
"2015-09-17 05:48:00",9.6,9.1,1.6,0.0,0,993.8,0,1,"",97
"2015-09-17 05:49:00",9.6,9.1,1.6,0.0,0,993.9,1,1,"",97
"2015-09-17 05:50:00",9.6,9.1,1.6,0.0,0,994.0,1,2,"",97
"2015-09-17 05:51:00",9.5,9.1,1.6,0.0,0,994.0,1,2,"",97
"2015-09-17 05:52:00",9.5,9.1,1.6,0.0,0,994.0,1,1,"",97
"2015-09-17 05:53:00",9.5,9.0,1.6,0.0,0,994.0,0,1,"",97
"2015-09-17 05:54:00",9.5,9.0,1.6,0.0,0,994.0,0,1,"",97
"2015-09-17 05:55:00",9.4,9.0,1.6,0.0,0,994.1,0,1,"",97
"2015-09-17 05:56:00",9.4,9.0,1.6,0.0,0,994.1,0,2,"",97
"2015-09-17 05:57:00",9.4,9.0,1.6,0.0,0,994.1,0,1,"",97
"2015-09-17 05:58:00",9.4,8.9,1.6,0.0,0,994.2,0,1,"",97
"2015-09-17 05:59:00",9.4,8.9,1.6,0.0,0,994.2,0,1,"",97
"2015-09-17 06:00:00",9.4,8.9,1.6,0.0,0,994.2,0,1,"",97
"2015-09-17 06:01:00",9.3,8.9,1.6,0.0,0,994.2,0,1,"",97
"2015-09-17 06:02:00",9.3,8.9,1.6,0.0,0,994.2,0,1,"",97
"2015-09-17 06:03:00",9.3,8.9,1.6,0.0,0,994.3,0,1,"",97
"2015-09-17 06:04:00",9.3,8.8,1.6,0.0,0,994.3,0,1,"",97
"2015-09-17 06:05:00",9.3,8.8,1.6,0.0,0,994.3,0,1,"",97
"2015-09-17 06:06:00",9.3,8.8,1.6,0.0,0,994.3,0,1,"",97
"2015-09-17 06:07:00",9.3,8.8,1.6,0.0,0,994.3,0,0,"",97
"2015-09-17 06:08:00",9.2,8.8,1.6,0.0,0,994.3,0,2,"",97
"2015-09-17 06:09:00",9.2,8.8,1.6,0.0,0,994.3,1,1,"",97
"2015-09-17 06:10:00",9.2,8.8,1.6,0.0,0,994.3,0,0,"",97
"2015-09-17 06:11:00",9.2,8.8,1.6,0.0,0,994.4,0,0,"",97
"2015-09-17 06:12:00",9.2,8.7,1.6,0.0,0,994.4,0,1,"",97
"2015-09-17 06:13:00",9.2,8.7,1.6,0.0,0,994.4,0,2,"",97
"2015-09-17 06:14:00",9.2,8.7,1.6,0.0,0,994.4,0,1,"",97
"2015-09-17 06:15:00",9.1,8.7,1.6,0.0,0,994.4,0,1,"",97
"2015-09-17 06:16:00",9.1,8.7,1.6,0.0,0,994.5,0,1,"",97
"2015-09-17 06:17:00",9.1,8.7,1.6,0.0,0,994.5,0,1,"",97
"2015-09-17 06:18:00",9.1,8.6,1.6,0.0,0,994.5,0,0,"",97
"2015-09-17 06:19:00",9.1,8.6,1.6,0.0,0,994.6,0,1,"",97
"2015-09-17 06:20:00",9.1,8.6,1.6,0.0,0,994.6,0,1,"",97
"2015-09-17 06:21:00",9.0,8.6,1.6,0.0,0,994.6,0,1,"",97
"2015-09-17 06:22:00",9.0,8.6,1.6,0.0,0,994.6,0,1,"",97
"2015-09-17 06:23:00",9.0,8.6,1.6,0.0,0,994.6,1,1,"",97
"2015-09-17 06:24:00",9.0,8.5,1.6,0.0,0,994.6,0,0,"",97
"2015-09-17 06:25:00",9.0,8.5,1.6,0.0,0,994.7,0,0,"",97
"2015-09-17 06:26:00",9.0,8.5,1.6,0.0,0,994.7,0,0,"",97
"2015-09-17 06:27:00",8.9,8.5,1.6,0.0,0,994.7,0,1,"",97
"2015-09-17 06:28:00",8.9,8.5,1.6,0.0,0,994.8,0,1,"",97
"2015-09-17 06:29:00",8.9,8.5,1.6,0.0,0,994.8,0,0,"",97
"2015-09-17 06:30:00",8.9,8.5,1.6,0.0,0,994.8,0,0,"",97
"2015-09-17 06:31:00",8.9,8.4,1.6,0.0,0,994.9,0,0,"",97
"2015-09-17 06:32:00",8.9,8.4,1.6,0.0,0,994.9,0,0,"",97
"2015-09-17 06:33:00",8.9,8.4,1.6,0.0,0,994.9,0,0,"",97
"2015-09-17 06:34:00",8.8,8.4,1.6,0.0,0,994.9,0,1,"",97
"2015-09-17 06:35:00",8.8,8.4,1.6,0.0,0,994.9,0,1,"",97
"2015-09-17 06:36:00",8.8,8.4,1.6,0.0,0,994.9,0,0,"",97
"2015-09-17 06:37:00",8.8,8.4,1.6,0.0,0,995.0,0,0,"",97
"2015-09-17 06:38:00",8.8,8.4,1.6,0.0,0,995.0,0,1,"",97
"2015-09-17 06:39:00",8.8,8.3,1.6,0.0,0,995.0,0,0,"",97
"2015-09-17 06:40:00",8.8,8.3,1.6,0.0,0,995.1,0,1,"",97
"2015-09-17 06:41:00",8.8,8.3,1.6,0.0,0,995.1,0,1,"",97
"2015-09-17 06:42:00",8.8,8.3,1.6,0.0,0,995.1,0,1,"",97
"2015-09-17 06:43:00",8.7,8.3,1.6,0.0,0,995.2,0,1,"",97
"2015-09-17 06:44:00",8.7,8.3,1.6,0.0,0,995.2,0,0,"",97
"2015-09-17 06:45:00",8.7,8.3,1.6,0.0,0,995.2,0,1,"",97
"2015-09-17 06:46:00",8.7,8.3,1.6,0.0,0,995.2,0,0,"",97
"2015-09-17 06:47:00",8.7,8.3,1.6,0.0,0,995.2,0,0,"",97
"2015-09-17 06:48:00",8.7,8.2,1.6,0.0,0,995.2,0,1,"",97
"2015-09-17 06:49:00",8.7,8.2,1.6,0.0,0,995.3,0,1,"",97
"2015-09-17 06:50:00",8.7,8.2,1.6,0.0,0,995.3,0,1,"",97
"2015-09-17 06:51:00",8.7,8.2,1.6,0.0,0,995.4,0,1,"",97
"2015-09-17 06:52:00",8.6,8.2,1.6,0.0,0,995.4,0,1,"",97
"2015-09-17 06:53:00",8.6,8.2,1.6,0.0,0,995.4,0,0,"",97
"2015-09-17 06:54:00",8.6,8.2,1.6,0.0,5,995.4,0,0,"",97
"2015-09-17 06:55:00",8.6,8.2,1.6,0.0,5,995.5,0,0,"",97